Tracking 27188 objects as of 1-Apr-2023
HD Live streaming from Space Station
objects crossing your sky now

STARLINK-30054

Track STARLINK-30054 now!
10-day predictions
STARLINK-30054 is classified as:


NORAD ID: 55706
Int'l Code: 2023-026M
Perigee: 368.2 km
Apogee: 373.1 km
Inclination: 43.0 °
Period: 91.8 minutes
Semi major axis: 6741 km
RCS: Unknown
Launch date: February 27, 2023
Source: United States (US)
Launch site: AIR FORCE EASTERN TEST RANGE (AFETR)
Your satellite tracking list
Your tracking list is empty




NASA's NSSDC Master Catalog

Two Line Element Set (TLE):
1 55706U 23026M   23090.91667824  .00280095  00000-0  23397-2 0  9993
2 55706  43.0003  92.4050 0003604 136.4392 183.4199 15.68384626  6039
Source of the keplerian elements: AFSPC